Regional Weather Roundup
Issued by NWS

Home | Current Version | Previous Version | Graphics & Text | Print | Product List | Glossary On
Versions: 1 2 3 4 5 6 7 8 9 10 11 12 13 14 15 16 17 18 19 20 21 22 23 24 25 26 27 28 29 30 31 32 33 34 35 36 37 38 39 40 41 42 43 44 45 46 47 48 49 50
000
ASUS43 KLMK 011802
RWRKY
KENTUCKY REGIONAL WEATHER ROUNDUP
NATIONAL WEATHER SERVICE LOUISVILLE KY
200 PM EDT WED JUL 01 2015

NOTE "FAIR" INDICATES FEW OR NO CLOUDS BELOW 12,000 FEET
WITH NO SIGNIFICANT WEATHER AND/OR OBSTRUCTIONS TO VISIBILITY.

KYZ001>023-026-027-061>063-070>075-011900-
WESTERN AND SOUTH CENTRAL KENTUCKY

CITY           SKY/WX    TMP DP  RH WIND       PRES   REMARKS
PADUCAH        PTSUNNY   74  69  85 W5        29.96F
HENDERSON      CLOUDY    77  66  69 W7        29.94F
OWENSBORO      CLOUDY    80  70  71 W13       29.95F
HOPKINSVILLE   NOT AVBL
BOWLING GREEN  CLOUDY    80  69  69 W12       29.98S
GLASGOW        NOT AVBL
$$

KYZ024-025-028>034-038-045-046-053-011900-
NORTH CENTRAL KENTUCKY

CITY           SKY/WX    TMP DP  RH WIND       PRES   REMARKS
LOUISVILLE/SDF CLOUDY    79  68  69 W5        29.93F
LOUISVILLE/LOU PTSUNNY   79  67  66 CALM      29.94F
FORT KNOX      RAIN      73  70  88 W8        29.94F
$$

KYZ035>037-039>044-047>052-055>060-089>105-011900-
NORTHEAST KENTUCKY

CITY           SKY/WX    TMP DP  RH WIND       PRES   REMARKS
LEXINGTON      PTSUNNY   78  69  73 N6        29.96S
COVINGTON      PTSUNNY   78  63  59 NW6       29.95F
FRANKFORT      PTSUNNY   77  67  71 CALM      29.95S
$$

KYZ054-064>069-076>088-106>120-011900-
SOUTHEAST KENTUCKY

CITY           SKY/WX    TMP DP  RH WIND       PRES   REMARKS
JACKSON        MOSUNNY   78  68  71 VRB3      29.97F
LONDON         CLOUDY    77  66  68 W8        29.99S
SOMERSET       NOT AVBL
MIDDLESBORO    CLOUDY    78  70  76 CALM      30.00S
MONTICELLO     CLOUDY    73  71  93 S7        30.03R
$$



USA.gov is the U.S. government's official web portal to all federal, state and local government web resources and services.